Home   Weather   Formosa   Past weeks

Flag for Argentina Past Weather in Formosa, Formosa, Argentina — Yesterday and Last 2 Weeks

Now
75 °F

Clear.


Feels Like: 74 °F
Forecast: 75 / 89 °F
Wind: 3 mph from North

Location: Formosa Aerodrome

Current Time: Jan 24, 2017 at 6:19:11 am

Latest Report: Jan 24, 2017 at 5:00 am


Visibility: 10 mi

Pressure: 29.77 "Hg

Humidity: 94%

Dew Point: 73 °F

Location of FormosaLocation

Past Weather in Formosa — Graph

°F

Formosa Temperature Yesterday

Maximum temperature yesterday: 91 °F (at 12:00 pm)
Minimum temperature yesterday: 77 °F (at 4:00 am)
Average temperature yesterday: 82 °F

High & Low Weather Summary for the Past Weeks

 TemperatureHumidityPressure
High102 °F (Jan 13, 4:00 pm)100% (Jan 11, 5:00 am)29.98 "Hg (Jan 11, 5:00 am)
Low70 °F (Jan 17, 6:00 am)36% (Jan 19, 5:00 pm)29.53 "Hg (Jan 9, 6:00 pm)
Average84 °F73%29.78 "Hg
* Reported Jan 9 5:00 am — Jan 24 5:00 am, Formosa, Weather by CustomWeather, © 2017

Note: Actual official high and low records may vary slightly from our data, if they occured in-between our weather recording intervals... More about our weather records

Advertising

Formosa Weather History for the Previous 24 Hours

Scroll right to see more
 ConditionsComfort  
Time TempWeatherWind HumidityBarometerVisibility
5:00 am
Tue, Jan 24
75 °FClear.3 mph94%29.77 "Hg10 mi
4:00 am75 °FClear.No wind94%29.77 "Hg10 mi
3:00 am75 °FPassing clouds.No wind94%29.80 "HgN/A
2:00 am77 °FPassing clouds.3 mph89%29.80 "HgN/A
1:00 am77 °FMostly cloudy.No wind89%29.83 "HgN/A
12:00 am77 °FMostly cloudy.No wind89%29.86 "HgN/A
11:00 pm
Mon, Jan 23
77 °FPassing clouds.2 mph89%29.86 "HgN/A
10:00 pm77 °FMostly cloudy.2 mph89%29.86 "HgN/A
9:00 pm79 °FPassing clouds.6 mph79%29.83 "HgN/A
8:00 pm81 °FPassing clouds.2 mph74%29.80 "HgN/A
7:00 pm82 °FPassing clouds.8 mph66%29.77 "HgN/A
6:00 pm88 °FScattered clouds.3 mph66%29.77 "HgN/A
5:00 pm90 °FPassing clouds.3 mph63%29.77 "HgN/A
4:00 pm86 °FPassing clouds.2 mph70%29.77 "HgN/A
3:00 pm82 °FThunderstorms. Mostly cloudy.3 mph70%29.80 "HgN/A
2:00 pm86 °FThunderstorms. Scattered clouds.20 mph62%29.83 "HgN/A
1:00 pm91 °FScattered clouds.6 mph59%29.83 "HgN/A
12:00 pm91 °FScattered clouds.7 mph59%29.86 "HgN/A
11:00 am90 °FScattered clouds.9 mph59%29.83 "HgN/A
10:00 am86 °FPassing clouds.8 mph66%29.86 "HgN/A
9:00 am84 °FPassing clouds.7 mph66%29.86 "HgN/A
8:00 am79 °FPassing clouds.No wind89%29.83 "HgN/A
7:00 am77 °FSunny.No wind89%29.83 "Hg10 mi
6:00 am77 °FClear.No wind89%29.80 "Hg10 mi
Weather by CustomWeather, © 2017

See weather overviewHow to use our weather pages